TimeMST,TemperatureF,Dew PointF,Humidity,Sea Level PressureIn,VisibilityMPH,Wind Direction,Wind SpeedMPH,Gust SpeedMPH,PrecipitationIn,Events,Conditions,WindDirDegrees,DateUTC
12:53 AM,9.0,3.9,80,30.04,10.0,Calm,Calm,-,N/A,,Clear,0,2013-01-08 07:53:00
1:53 AM,5.0,1.0,84,30.03,10.0,Calm,Calm,-,N/A,,Clear,0,2013-01-08 08:53:00
2:53 AM,1.9,-0.9,88,30.07,10.0,SSW,3.5,-,N/A,,Clear,210,2013-01-08 09:53:00
3:53 AM,1.9,-2.0,83,30.09,10.0,Calm,Calm,-,N/A,,Clear,0,2013-01-08 10:53:00
4:53 AM,6.1,1.0,80,30.08,10.0,Calm,Calm,-,N/A,,Clear,0,2013-01-08 11:53:00
5:53 AM,-0.9,-5.1,83,30.15,10.0,Calm,Calm,-,N/A,,Clear,0,2013-01-08 12:53:00
6:53 AM,-2.9,-7.1,82,30.21,10.0,South,4.6,-,N/A,,Clear,180,2013-01-08 13:53:00
7:53 AM,-0.0,-5.1,79,30.26,10.0,Calm,Calm,-,N/A,,Clear,0,2013-01-08 14:53:00
8:53 AM,10.0,3.0,73,30.21,10.0,North,4.6,-,N/A,,Clear,350,2013-01-08 15:53:00
9:53 AM,17.1,5.0,59,30.24,10.0,Calm,Calm,-,N/A,,Clear,0,2013-01-08 16:53:00
10:53 AM,25.0,7.0,46,30.20,10.0,Calm,Calm,-,N/A,,Clear,0,2013-01-08 17:53:00
11:53 AM,30.9,8.1,38,30.16,10.0,Calm,Calm,-,N/A,,Clear,0,2013-01-08 18:53:00
12:53 PM,37.0,10.9,34,30.12,10.0,Calm,Calm,-,N/A,,Clear,0,2013-01-08 19:53:00
1:53 PM,41.0,17.1,38,30.12,10.0,North,10.4,-,N/A,,Clear,360,2013-01-08 20:53:00
2:53 PM,41.0,18.0,40,30.14,10.0,North,10.4,-,N/A,,Clear,350,2013-01-08 21:53:00
3:53 PM,41.0,17.1,38,30.16,10.0,NNW,5.8,-,N/A,,Clear,340,2013-01-08 22:53:00
4:53 PM,37.0,17.1,44,30.18,10.0,North,6.9,-,N/A,,Clear,10,2013-01-08 23:53:00
5:53 PM,32.0,15.1,50,30.26,10.0,NNE,5.8,-,N/A,,Clear,20,2013-01-09 00:53:00
6:53 PM,28.0,14.0,56,30.32,10.0,ENE,3.5,-,N/A,,Clear,60,2013-01-09 01:53:00
7:53 PM,19.9,12.9,74,30.36,10.0,Calm,Calm,-,N/A,,Clear,0,2013-01-09 02:53:00
8:53 PM,24.1,14.0,65,30.33,10.0,Calm,Calm,-,N/A,,Clear,0,2013-01-09 03:53:00
9:53 PM,14.0,9.0,80,30.35,10.0,SSW,3.5,-,N/A,,Clear,200,2013-01-09 04:53:00
10:53 PM,12.9,9.0,84,30.35,10.0,WNW,4.6,-,N/A,,Clear,290,2013-01-09 05:53:00
11:53 PM,12.0,8.1,84,30.34,10.0,Calm,Calm,-,N/A,,Clear,0,2013-01-09 06:53:00